Location: Gro�sch�nbrunn
(49.5760°N, 11.8868°E)
Time: 17:21:09
(UTC+00:00)

Cosmos 1943 Rocket - Pass Details

Date: 18 September 2020
Orbit: 814 x 842 km, 71.0° (Epoch: 31 October)

Event Time Altitude Azimuth Distance (km) Brightness Sun altitude
Exits shadow 22:35:29 17° 38° (NE) 1,992 4.5 -38.6°
Drops below altitude 10° 22:36:43 10° 35° (NE) 2,444 5.0 -38.6°
Sets 22:39:10 0° 32° (NNE) 3,377 5.9 -38.7°
